SITRO-AIS 49

Last updated on Thu Nov 21 2024 00:03:40 GMT+0000 (Coordinated Universal Time)

1 59060U 24039K 24325.60051678 .00065094 00000+0 14312-2 0 9993 2 59060 97.4084 288.0234 0014644 36.8977 323.3276 15.43658705 40587
UTC large
Height (km)
Speed (km/s)
/
Latitude / Longitude
Inclination (degrees)
Orbital Period (minutes)
Azimuth
Elevation
Range (km)
Doppler Factor

Next 0 passes for location: London (51.5072 / 0.1276)

Sorry there are no passes over London.